[[{"header":{"parameterUnit":"m.s-1","parameterCategory":2,"la1":30.2991,"la2":30.254,"lo1":-89.0895,"lo2":-89.0444,"dy":0.0017,"dx":0.0017,"nx":28,"ny":28,"refTime":"2023-08-02T03:00:00:Z","depth":"0","parameterNumber":2,"parameterNumberName":"U-component_of_CURRENTS"},"data":[0,0,0,0,0,0,0,0,0,0,0,0,0,0,0,0,0,0,0,0,0,0,0,0,0,0,0,0,0,0,0,0,0,0,0,0,0,0,0,0,0,0,0,0,0,0,0,0,0,0,0,0,0,0,0,0,0,0,0.2809,0.281,0,0.2894,0.2895,0.2896,0.2869,0.2868,0.2866,0.2864,0.2751,0.275,0.2748,0,0,0,0,0,0,0,0,0,0,0,0,0,0.283,0.2829,0.2809,0.281,0.2811,0.2894,0.2895,0.2896,0.287,0.2868,0.2865,0.2863,0.2751,0.275,0.2748,0,0,0,0,0,0,0,0,0,0,0,0,0,0.2858,0.2828,0.2809,0.2808,0.2809,0.2894,0.2895,0.2897,0.287,0.2868,0.2865,0.2862,0.2752,0.275,0.2748,0.2788,0,0,0.2742,0.2741,0,0,0,0,0,0,0,0,0.2856,0.2857,0.2807,0.2808,0.2809,0.2869,0.2862,0.2851,0.2871,0.2847,0.2864,0.2861,0.2774,0.277,0.2794,0.2783,0.2778,0.2741,0.274,0.2739,0.2739,0,0,0,0,0,0,0,0.2854,0.2854,0.2842,0.2809,0.281,0.2875,0.2874,0.2861,0.282,0.2848,0.2847,0.2858,0.2773,0.2797,0.2791,0.2776,0.2741,0.274,0.2738,0.2738,0.2905,0.2911,0,0,0,0,0,0,0.2836,0.2851,0.2839,0.2845,0.2827,0.2876,0.2875,0.2852,0.2824,0.282,0.286,0.2856,0.2801,0.2793,0.2786,0.2927,0.2739,0.2737,0.2736,0.29,0.2906,0.2913,0,0,0,0,0,0,0.2836,0.2833,0.2836,0.2853,0.2858,0.2877,0.2853,0.2855,0.2886,0.2836,0.2826,0.2888,0.2799,0.2789,0.2829,0.2918,0.2736,0.2735,0.2893,0.2902,0.291,0.3147,0,0,0,0,0,0,0.2835,0.2832,0.2827,0.285,0.2856,0.2923,0.2855,0.2859,0.2896,0.2892,0.2857,0.2843,0.2796,0.2834,0.2827,0.2912,0.2733,0.2886,0.2897,0.2907,0.3132,0.3162,0.3188,0,0,0,0,0,0.2835,0.2847,0.2825,0.2826,0.2841,0.2927,0.2939,0.2944,0.29,0.2952,0.2934,0.2845,0.2896,0.2837,0.2828,0.2914,0.288,0.2894,0.2906,0.3119,0.3156,0.3188,0,0,0,0,0,0,0.2861,0.2846,0.2823,0.2827,0.2887,0.2923,0.2973,0.2963,0.2993,0.2983,0.291,0.29,0.2982,0.292,0.2856,0.3001,0.2877,0.2889,0.3042,0.3076,0.3104,0.3082,0.2731,0,0,0,0,0,0.2861,0.2856,0.288,0.2892,0.2925,0.295,0.2985,0.2995,0.3019,0.3029,0.3014,0.3004,0.3033,0.3027,0.3048,0.3105,0.3064,0.3161,0.319,0.3214,0.3196,0.3278,0.3312,0.2955,0.2955,0.2954,0,0,0.2878,0.2867,0.2867,0.2899,0.2939,0.3034,0.2966,0.3046,0.3122,0.301,0.3114,0.311,0.3079,0.3175,0.3202,0.3123,0.3298,0.323,0.3251,0.3218,0.3295,0.3329,0.336,0.2963,0.2962,0.296,0,0,0.2949,0.2905,0.2953,0.301,0.308,0.3109,0.3136,0.3204,0.3232,0.3324,0.3288,0.3339,0.3357,0.3381,0.338,0.3571,0.3464,0.3579,0.3678,0.3761,0.379,0.3815,0.3814,0.3837,0.3571,0.3572,0.3572,0,0.2971,0.3015,0.2997,0.3085,0.3141,0.3149,0.3258,0.3314,0.3389,0.3415,0.3384,0.3476,0.3461,0.3561,0.3639,0.3634,0.3627,0.3546,0.3796,0.382,0.3841,0.3834,0.3856,0.3585,0.3583,0.3582,0.3581,0,0.3106,0.315,0.3201,0.3289,0.3358,0.3456,0.3523,0.3593,0.3606,0.3641,0.3749,0.376,0.3786,0.3829,0.3782,0.3938,0.3867,0.3841,0.3701,0.3891,0.3871,0.389,0.3604,0.3599,0.3595,0.3592,0,0,0.3126,0.3261,0.3279,0.3342,0.3466,0.353,0.3666,0.3773,0.3807,0.3913,0.3972,0.4086,0.4055,0.4055,0.4036,0.4102,0.4266,0.4034,0.4032,0.4015,0.4398,0.4151,0.4145,0.4289,0.4293,0.4297,0.4324,0,0.3242,0.342,0.3452,0.3627,0.3735,0.3763,0.3864,0.3951,0.3987,0.4052,0.41,0.4156,0.4154,0.415,0.4246,0.4248,0.4324,0.4256,0.4228,0.4225,0.397,0.4163,0.3878,0.3862,0.4341,0.4344,0.4346,0,0.3371,0.347,0.365,0.3762,0.3802,0.3885,0.3975,0.4063,0.4147,0.4166,0.4242,0.4247,0.4371,0.4326,0.4471,0.4425,0.4438,0.4441,0.4442,0.4127,0.4013,0.3751,0.3875,0.3796,0.4373,0.4371,0.4369,0,0.3413,0.3591,0.3717,0.3774,0.3918,0.3959,0.4015,0.4094,0.4129,0.422,0.4235,0.4372,0.44,0.4505,0.4527,0.4511,0.4639,0.4613,0.4409,0.4389,0.4089,0.4033,0.4106,0.4737,0.4737,0.4737,0.4737,0,0.3523,0.3622,0.3729,0.3809,0.3907,0.398,0.4038,0.4099,0.4149,0.4181,0.4281,0.4311,0.4451,0.4522,0.4567,0.4527,0.469,0.444,0.4401,0.4162,0.4115,0.3976,0.3981,0.4738,0.4738,0.4738,0.4738,0,0.3583,0.3654,0.379,0.3915,0.3935,0.4,0.4042,0.4063,0.412,0.4158,0.4191,0.4294,0.4352,0.445,0.4559,0.4514,0.4376,0.4483,0.4141,0.4059,0.3712,0.3738,0.3524,0.3462,0.4239,0.4233,0.4229,0,0.3653,0.3734,0.3842,0.3872,0.3921,0.3988,0.4005,0.4055,0.4059,0.4126,0.414,0.4201,0.4194,0.4238,0.4175,0.4167,0.4165,0.3894,0.3813,0.3662,0.3669,0.3536,0.3497,0.3528,0.3518,0.351,0.3503,0,0.3785,0.3784,0.3867,0.3907,0.3927,0.395,0.3973,0.3963,0.3991,0.4005,0.3974,0.3959,0.3914,0.3726,0.3691,0.3671,0.3644,0.3713,0.3696,0.3224,0.2949,0.2878,0.3507,0.343,0.3437,0.3443,0.3447,0.345,0.3833,0.387,0.3899,0.3906,0.3921,0.3862,0.3799,0.3797,0.375,0.3645,0.3748,0.3589,0.3421,0.3267,0.3232,0.2945,0.3073,0.2828,0.2905,0.2807,0.2643,0.3047,0.2835,0.2839,0.2842,0.2845,0.2848,0,0.3846,0.3839,0.3882,0.3828,0.3761,0.3789,0.3717,0.3578,0.3429,0.3378,0.3279,0.2986,0.2753,0.2632,0.2339,0.2196,0.2126,0.2164,0.1998,0.2038,0.2511,0.2375,0.1882,0.1882,0.1883,0.1883,0.1883,0.1883,0.3835,0.3817,0.3787,0.3636,0.3587,0.3398,0.3304,0.313,0.3021,0.269,0.2454,0.2383,0.2269,0.2017,0.1784,0.1744,0.171,0.1465,0.1677,0.2091,0.2162,0.2229,0.2105,0.1564,0.1564,0.1015,0.1011,0.1009]},{"header":{"parameterUnit":"m.s-1","parameterCategory":2,"la1":30.2991,"la2":30.254,"lo1":-89.0895,"lo2":-89.0444,"dy":0.0017,"dx":0.0017,"nx":28,"ny":28,"refTime":"2023-08-02T03:00:00:Z","depth":"0","parameterNumber":3,"parameterNumberName":"V-component_of_CURRENTS"},"data":[0,0,0,0,0,0,0,0,0,0,0,0,0,0,0,0,0,0,0,0,0,0,0,0,0,0,0,0,0,0,0,0,0,0,0,0,0,0,0,0,0,0,0,0,0,0,0,0,0,0,0,0,0,0,0,0,0,0,0.0343,0.0343,0,0.0374,0.0374,0.0375,0.0365,0.0365,0.0364,0.0364,0.0395,0.0396,0.0397,0,0,0,0,0,0,0,0,0,0,0,0,0,0.0289,0.029,0.0343,0.0343,0.0344,0.0374,0.0374,0.0375,0.0365,0.0365,0.0364,0.0363,0.0394,0.0396,0.0397,0,0,0,0,0,0,0,0,0,0,0,0,0,0.0314,0.029,0.0343,0.0344,0.0344,0.0374,0.0374,0.0375,0.0365,0.0365,0.0364,0.0363,0.0394,0.0396,0.0398,0.0425,0,0,0.0404,0.0405,0,0,0,0,0,0,0,0,0.0312,0.0316,0.0343,0.0344,0.0345,0.0366,0.0367,0.0392,0.0366,0.0356,0.0364,0.0363,0.0387,0.0389,0.0395,0.0427,0.0428,0.0404,0.0405,0.0406,0.0406,0,0,0,0,0,0,0,0.0311,0.0314,0.0354,0.0344,0.0345,0.0348,0.035,0.0372,0.0374,0.0357,0.0356,0.0363,0.0387,0.0393,0.0395,0.0429,0.0404,0.0406,0.0407,0.0408,0.0496,0.0497,0,0,0,0,0,0,0.031,0.0313,0.0353,0.0355,0.0328,0.0349,0.0352,0.0359,0.0374,0.0376,0.0363,0.0362,0.039,0.0393,0.0397,0.044,0.0406,0.0408,0.0409,0.0495,0.0496,0.0498,0,0,0,0,0,0,0.0309,0.0314,0.0352,0.0335,0.0341,0.0351,0.0359,0.036,0.0367,0.0379,0.0381,0.0369,0.0389,0.0394,0.0415,0.0441,0.0409,0.041,0.0493,0.0495,0.0497,0.0521,0,0,0,0,0,0,0.0307,0.0313,0.0318,0.0336,0.0342,0.0371,0.036,0.0361,0.0373,0.0371,0.0385,0.0387,0.0389,0.0412,0.0417,0.0443,0.0412,0.0492,0.0494,0.0496,0.0518,0.0523,0.0527,0,0,0,0,0,0.0305,0.0317,0.0318,0.0323,0.0349,0.0372,0.0376,0.0379,0.0374,0.0381,0.0387,0.0387,0.043,0.0414,0.042,0.0447,0.0491,0.0494,0.0496,0.0517,0.0522,0.0527,0,0,0,0,0,0,0.0298,0.0318,0.0319,0.0337,0.0354,0.0371,0.0383,0.0384,0.0395,0.0395,0.0398,0.0401,0.0429,0.0437,0.042,0.048,0.0462,0.0466,0.0476,0.0481,0.0486,0.0511,0.0414,0,0,0,0,0,0.03,0.031,0.0332,0.0345,0.0357,0.0371,0.0381,0.0384,0.0398,0.0401,0.0413,0.0429,0.0447,0.0461,0.0476,0.0511,0.0529,0.0533,0.0538,0.0541,0.0566,0.0636,0.0649,0.0506,0.0506,0.0506,0,0,0.0299,0.0313,0.0317,0.0343,0.0359,0.0386,0.0375,0.0395,0.0416,0.0405,0.0437,0.0442,0.0457,0.049,0.0505,0.05,0.0581,0.0545,0.0547,0.0571,0.064,0.0654,0.0667,0.0508,0.0508,0.0507,0,0,0.0311,0.032,0.0337,0.0355,0.0382,0.0396,0.0403,0.0427,0.0436,0.0465,0.0462,0.0489,0.0513,0.0537,0.055,0.0593,0.0597,0.059,0.064,0.0707,0.0719,0.0731,0.0724,0.0735,0.0598,0.0598,0.0598,0,0.0312,0.0343,0.0346,0.0373,0.0399,0.0403,0.0439,0.045,0.0475,0.0505,0.0478,0.0547,0.0544,0.0609,0.061,0.0606,0.0619,0.0614,0.0713,0.0726,0.0737,0.0728,0.074,0.06,0.06,0.06,0.0599,0,0.0346,0.0371,0.0387,0.0425,0.0445,0.0479,0.0499,0.0525,0.0536,0.0558,0.0617,0.0618,0.0672,0.0662,0.0642,0.0726,0.0696,0.0704,0.07,0.0753,0.0739,0.0751,0.0602,0.0601,0.0601,0.0601,0,0,0.0367,0.0404,0.0415,0.0448,0.0482,0.0512,0.0549,0.0609,0.067,0.0673,0.0764,0.076,0.0775,0.0791,0.0781,0.0819,0.0871,0.0792,0.0795,0.0784,0.0971,0.092,0.0927,0.0901,0.0905,0.0907,0.091,0,0.0407,0.0466,0.0475,0.0542,0.0585,0.0603,0.065,0.0695,0.0738,0.0823,0.0833,0.0905,0.082,0.0862,0.0883,0.0902,0.0913,0.0867,0.0924,0.0925,0.0874,0.0944,0.0905,0.0905,0.0922,0.0924,0.0925,0,0.0457,0.0495,0.0559,0.0631,0.0655,0.0688,0.0797,0.0838,0.0933,0.0971,0.1033,0.1058,0.1113,0.1043,0.1078,0.1054,0.1011,0.0996,0.0997,0.0961,0.0899,0.0866,0.0926,0.0897,0.0944,0.0942,0.0941,0,0.0501,0.0566,0.0624,0.0645,0.0715,0.0757,0.0802,0.089,0.0963,0.1084,0.1173,0.1221,0.1281,0.1261,0.1196,0.1161,0.1227,0.1185,0.1082,0.1074,0.1062,0.1049,0.111,0.1211,0.1211,0.1211,0.1211,0,0.0562,0.0612,0.0648,0.0686,0.0777,0.0804,0.0922,0.0978,0.1097,0.1221,0.1257,0.1368,0.1346,0.1372,0.1278,0.1219,0.1291,0.1112,0.11,0.106,0.1048,0.1038,0.1019,0.1211,0.1211,0.1211,0.1211,0,0.0606,0.0628,0.0697,0.0768,0.0797,0.0859,0.0976,0.1075,0.1173,0.1346,0.14,0.1507,0.154,0.1475,0.1456,0.1338,0.1259,0.1227,0.1139,0.1117,0.0985,0.0968,0.1032,0.1041,0.1135,0.1134,0.1133,0,0.064,0.0676,0.0745,0.0795,0.0828,0.092,0.1002,0.1099,0.121,0.1429,0.1527,0.1624,0.1694,0.1621,0.1449,0.1296,0.1247,0.1145,0.1079,0.1001,0.0974,0.0969,0.0973,0.1042,0.1041,0.1039,0.1039,0,0.0705,0.0713,0.0764,0.0857,0.0937,0.1034,0.1151,0.1245,0.1396,0.1548,0.1732,0.1812,0.1746,0.1611,0.14,0.1272,0.1141,0.1115,0.1099,0.0972,0.0915,0.0908,0.0961,0.1028,0.1029,0.103,0.1031,0.1031,0.0746,0.0782,0.0842,0.0932,0.1027,0.1146,0.1234,0.1377,0.1552,0.1765,0.1828,0.1937,0.1751,0.1468,0.1316,0.1025,0.1063,0.0927,0.0924,0.0935,0.093,0.0923,0.0942,0.0943,0.0943,0.0944,0.0944,0,0.0784,0.083,0.0925,0.1026,0.1129,0.117,0.1342,0.1441,0.1637,0.1802,0.193,0.187,0.1652,0.1407,0.1028,0.0872,0.0831,0.0803,0.0805,0.0828,0.0877,0.0858,0.0784,0.0784,0.0784,0.0784,0.0784,0.0784,0.0812,0.088,0.0925,0.109,0.1173,0.13,0.1392,0.155,0.1684,0.1828,0.186,0.1881,0.1733,0.1187,0.087,0.079,0.0765,0.0697,0.0738,0.0759,0.0771,0.0783,0.0763,0.067,0.067,0.0693,0.0693,0.0693]}],[{"header":{"parameterUnit":"m.s-1","parameterCategory":2,"la1":30.2991,"la2":30.254,"lo1":-89.0895,"lo2":-89.0444,"dy":0.0017,"dx":0.0017,"nx":28,"ny":28,"refTime":"2023-08-02T03:00:00:Z","depth":"2","parameterNumber":2,"parameterNumberName":"U-component_of_CURRENTS"},"data":[0,0,0,0,0,0,0,0,0,0,0,0,0,0,0,0,0,0,0,0,0,0,0,0,0,0,0,0,0,0,0,0,0,0,0,0,0,0,0,0,0,0,0,0,0,0,0,0,0,0,0,0,0,0,0,0,0,0,0.2272,0.2272,0,0.2286,0.2286,0.2286,0.232,0.2321,0.2321,0.2322,0.226,0.2258,0.2256,0,0,0,0,0,0,0,0,0,0,0,0,0,0.2273,0.2273,0.2272,0.2272,0.2273,0.2286,0.2286,0.2287,0.232,0.2321,0.2322,0.2322,0.2261,0.2258,0.2256,0,0,0,0,0,0,0,0,0,0,0,0,0,0.2279,0.2273,0.2272,0.229,0.2292,0.2286,0.2286,0.2287,0.232,0.2321,0.2322,0.2323,0.2262,0.2259,0.2255,0.2215,0,0,0.2245,0.2244,0,0,0,0,0,0,0,0,0.2279,0.2279,0.2288,0.2289,0.2291,0.2302,0.2264,0.2259,0.232,0.231,0.2322,0.2323,0.2266,0.2262,0.2265,0.2212,0.221,0.2245,0.2243,0.2241,0.224,0,0,0,0,0,0,0,0.2278,0.2279,0.2278,0.2288,0.229,0.2297,0.2299,0.2264,0.2281,0.2311,0.2313,0.2313,0.2267,0.2268,0.2263,0.2209,0.2245,0.2242,0.224,0.2238,0.2318,0.2322,0,0,0,0,0,0,0.2274,0.2278,0.2278,0.2279,0.2286,0.2296,0.2299,0.2298,0.2284,0.2283,0.2313,0.2315,0.2273,0.2267,0.2261,0.2405,0.2241,0.2238,0.2236,0.2314,0.2319,0.2323,0,0,0,0,0,0,0.2274,0.2274,0.2277,0.2278,0.2279,0.2295,0.2294,0.2298,0.2318,0.2286,0.2284,0.2331,0.2274,0.2266,0.2303,0.2395,0.2237,0.2234,0.2309,0.2316,0.2321,0.2567,0,0,0,0,0,0,0.2274,0.2274,0.2282,0.2278,0.2279,0.2289,0.2293,0.2297,0.2315,0.2319,0.23,0.2295,0.2274,0.2309,0.23,0.2387,0.2231,0.2304,0.2312,0.2319,0.2554,0.2581,0.2604,0,0,0,0,0,0.2274,0.2275,0.2282,0.2283,0.2287,0.229,0.2292,0.2306,0.2315,0.2327,0.2358,0.2296,0.2352,0.2309,0.2298,0.2386,0.23,0.231,0.2319,0.2542,0.2576,0.2604,0,0,0,0,0,0,0.2284,0.2278,0.2287,0.2288,0.2298,0.2296,0.2308,0.2314,0.2345,0.2369,0.2335,0.2333,0.2415,0.2352,0.2306,0.2434,0.2319,0.2327,0.2494,0.2524,0.2549,0.2554,0.2228,0,0,0,0,0,0.2288,0.2284,0.2289,0.2291,0.23,0.2307,0.2314,0.2336,0.2354,0.2369,0.2348,0.2366,0.2438,0.2442,0.2459,0.2495,0.246,0.2549,0.2574,0.2596,0.2595,0.2681,0.2714,0.2354,0.2354,0.2354,0,0,0.2311,0.2288,0.2302,0.2293,0.2303,0.2341,0.2315,0.2345,0.2397,0.2354,0.2404,0.2446,0.2472,0.2566,0.2592,0.2523,0.2677,0.2608,0.2627,0.2613,0.2694,0.2729,0.2761,0.236,0.2359,0.2358,0,0,0.2355,0.232,0.2358,0.2354,0.237,0.2372,0.2385,0.2397,0.2426,0.2496,0.2522,0.2615,0.2635,0.2703,0.2745,0.2898,0.2821,0.2907,0.3023,0.3109,0.314,0.3166,0.3151,0.3174,0.2904,0.2905,0.2905,0,0.2371,0.2397,0.2371,0.2396,0.2388,0.2392,0.2436,0.2478,0.2504,0.2557,0.2543,0.2708,0.2718,0.2895,0.2985,0.2958,0.2962,0.2914,0.3145,0.317,0.3193,0.3171,0.3193,0.2918,0.2916,0.2915,0.2914,0,0.2469,0.2469,0.2475,0.2503,0.251,0.2523,0.2567,0.2601,0.2637,0.2707,0.2867,0.2917,0.303,0.3065,0.3088,0.3275,0.321,0.3184,0.3071,0.3244,0.3209,0.3228,0.2936,0.2932,0.2928,0.2925,0,0,0.247,0.2537,0.2515,0.2542,0.2543,0.2558,0.2646,0.2733,0.2832,0.2915,0.3059,0.3228,0.3289,0.3338,0.3373,0.3439,0.3619,0.34,0.3398,0.3388,0.3762,0.3461,0.345,0.366,0.3665,0.3669,0.3667,0,0.2519,0.2581,0.2593,0.2642,0.2668,0.2674,0.275,0.2853,0.2945,0.3086,0.3228,0.3397,0.339,0.3492,0.3581,0.3614,0.3683,0.3617,0.359,0.3587,0.3303,0.3468,0.3222,0.3178,0.3684,0.3687,0.369,0,0.2567,0.2581,0.2661,0.2694,0.2709,0.278,0.2863,0.2956,0.3176,0.3264,0.3469,0.3577,0.3764,0.3721,0.3857,0.3826,0.3836,0.3819,0.3819,0.3459,0.3321,0.309,0.3192,0.3719,0.3717,0.3715,0.3713,0,0.2547,0.2588,0.2643,0.2648,0.2739,0.2808,0.2884,0.3052,0.3143,0.3432,0.3527,0.3764,0.3876,0.396,0.3937,0.3955,0.3998,0.4011,0.373,0.3704,0.3438,0.3379,0.412,0.412,0.412,0.412,0.412,0,0.2531,0.2573,0.2662,0.2699,0.2778,0.2856,0.3016,0.3117,0.3314,0.3457,0.3664,0.3764,0.3953,0.3989,0.3992,0.3864,0.405,0.3762,0.3709,0.3508,0.3458,0.3874,0.3846,0.412,0.412,0.412,0.412,0,0.2515,0.2594,0.2643,0.2736,0.2799,0.287,0.3066,0.317,0.335,0.3531,0.3633,0.3816,0.3847,0.3877,0.3956,0.3866,0.3809,0.3714,0.3397,0.3305,0.3456,0.3441,0.3473,0.3463,0.3454,0.3447,0.3441,0,0.2521,0.2548,0.2634,0.2696,0.2769,0.2917,0.302,0.3203,0.3288,0.3513,0.3558,0.3678,0.3665,0.3576,0.3491,0.3378,0.3549,0.3067,0.3062,0.3458,0.3404,0.3402,0.3398,0.282,0.2809,0.28,0.2793,0,0.2471,0.2508,0.2548,0.2658,0.2777,0.2872,0.3031,0.3073,0.327,0.3332,0.3375,0.3389,0.3322,0.3089,0.2917,0.2841,0.307,0.2878,0.3447,0.2974,0.2829,0.2778,0.28,0.2716,0.2724,0.273,0.2734,0.2737,0.2407,0.2409,0.2485,0.2615,0.2718,0.2804,0.2851,0.2916,0.2965,0.2967,0.306,0.2918,0.2897,0.2477,0.2337,0.2262,0.25,0.2429,0.2464,0.2507,0.2384,0.2227,0.1975,0.1978,0.1981,0.1984,0.1986,0,0.2333,0.241,0.2463,0.2577,0.2622,0.2759,0.2827,0.2755,0.2696,0.2639,0.2565,0.2195,0.1965,0.1963,0.1726,0.165,0.1736,0.1586,0.1738,0.1812,0.1879,0.1734,0.1148,0.1146,0.1144,0.1142,0,0,0.2302,0.2352,0.2418,0.2506,0.2586,0.259,0.2611,0.2432,0.2317,0.2034,0.189,0.1863,0.1889,0.1504,0.1421,0.127,0.1547,0.1199,0.1871,0.2128,0.2193,0.2352,0.2206,0,0,0,0,0]},{"header":{"parameterUnit":"m.s-1","parameterCategory":2,"la1":30.2991,"la2":30.254,"lo1":-89.0895,"lo2":-89.0444,"dy":0.0017,"dx":0.0017,"nx":28,"ny":28,"refTime":"2023-08-02T03:00:00:Z","depth":"2","parameterNumber":3,"parameterNumberName":"V-component_of_CURRENTS"},"data":[0,0,0,0,0,0,0,0,0,0,0,0,0,0,0,0,0,0,0,0,0,0,0,0,0,0,0,0,0,0,0,0,0,0,0,0,0,0,0,0,0,0,0,0,0,0,0,0,0,0,0,0,0,0,0,0,0,0,0.0047,0.0047,0,-0.0006,-0.0007,-0.0007,-0.0003,-0.0002,-0.0001,0.0,0.0041,0.0041,0.0041,0,0,0,0,0,0,0,0,0,0,0,0,0,0.0035,0.0035,0.0047,0.0047,0.0046,-0.0006,-0.0007,-0.0008,-0.0003,-0.0002,-0.0,0.0001,0.0041,0.0041,0.0041,0,0,0,0,0,0,0,0,0,0,0,0,0,0.0013,0.0035,0.0047,0.0045,0.0045,-0.0005,-0.0007,-0.0008,-0.0003,-0.0002,0.0,0.0002,0.0041,0.0041,0.0041,0.0006,0,0,0.0041,0.0041,0,0,0,0,0,0,0,0,0.0015,0.0013,0.0046,0.0045,0.0045,0.0007,0.0004,0.0003,-0.0004,0.0011,0.0001,0.0003,0.004,0.004,0.0019,0.0008,0.001,0.0041,0.0041,0.0041,0.0041,0,0,0,0,0,0,0,0.0016,0.0015,0.0022,0.0045,0.0045,0.0007,0.0007,0.0002,0.0015,0.001,0.0011,0.001,0.004,0.0019,0.0021,0.0011,0.0041,0.0041,0.0041,0.0041,0.0064,0.0065,0,0,0,0,0,0,0.0035,0.0017,0.0024,0.0021,0.0038,0.0007,0.0006,0.0015,0.0013,0.0015,0.0009,0.0011,0.0018,0.0021,0.0022,0.0043,0.0041,0.0041,0.0041,0.0064,0.0064,0.0065,0,0,0,0,0,0,0.0035,0.0036,0.0026,0.002,0.0017,0.0007,0.0015,0.0013,0.0003,0.0012,0.0015,0.0004,0.002,0.0022,0.004,0.0043,0.0041,0.0041,0.0063,0.0064,0.0065,0.0047,0,0,0,0,0,0,0.0035,0.0037,0.0043,0.0022,0.0018,-0.0003,0.0014,0.0011,0.0001,0.0003,0.0008,0.0013,0.0021,0.004,0.004,0.0043,0.0041,0.0062,0.0063,0.0064,0.0047,0.0047,0.0047,0,0,0,0,0,0.0035,0.0038,0.0044,0.0045,0.003,-0.0003,-0.001,-0.0015,-0.0001,-0.0016,0.0008,0.0013,0.0048,0.004,0.004,0.0043,0.0062,0.0063,0.0064,0.0047,0.0047,0.0047,0,0,0,0,0,0,0.0035,0.0039,0.0045,0.005,0.0027,-0.0001,-0.001,-0.0016,-0.0016,-0.0002,0.0012,0.0018,0.0039,0.0043,0.0034,0.0057,0.0058,0.006,0.0045,0.0046,0.0046,0.0096,0.0041,0,0,0,0,0,0.0039,0.0044,0.0033,0.0033,0.0028,0.0008,-0.0005,-0.0011,-0.0013,-0.0013,-0.0017,0.0005,0.0038,0.0045,0.0059,0.0058,0.0095,0.0065,0.0066,0.0066,0.0108,0.0185,0.0197,0.0069,0.0069,0.0069,0,0,0.0041,0.0041,0.0046,0.0033,0.002,-0.0008,0.0003,-0.0016,-0.004,-0.0006,-0.0037,0.0001,0.0041,0.0052,0.0062,0.0058,0.0107,0.0067,0.0067,0.0111,0.0188,0.0201,0.0212,0.007,0.007,0.007,0,0,0.003,0.0047,0.0042,0.0017,-0.0002,-0.0016,-0.0019,-0.0053,-0.0061,-0.0086,-0.004,0.0009,-0.0006,0.0049,0.0076,0.0086,0.011,0.0081,0.0116,0.0188,0.02,0.0211,0.021,0.0222,0.0076,0.0076,0.0076,0,0.0023,0.0022,0.0029,0.0001,-0.0013,-0.0018,-0.0042,-0.0066,-0.0096,-0.0059,-0.0096,-0.0002,0.0001,0.0107,0.0106,0.0089,0.0119,0.0105,0.019,0.0202,0.0214,0.0211,0.0224,0.0075,0.0075,0.0075,0.0075,0,0.0015,-0.001,-0.0019,-0.0046,-0.0061,-0.0087,-0.0105,-0.0118,-0.0126,-0.0108,-0.0031,-0.0012,0.0085,0.0063,0.008,0.0185,0.0171,0.0183,0.0189,0.0226,0.0219,0.0233,0.0074,0.0074,0.0074,0.0075,0,0,0.0035,-0.0015,-0.0021,-0.0045,-0.0086,-0.0094,-0.0117,-0.0094,-0.0047,-0.0066,0.0042,0.0059,0.0145,0.0186,0.0224,0.0258,0.0312,0.0256,0.026,0.0255,0.0437,0.036,0.0367,0.035,0.0354,0.0357,0.0375,0,0.0014,-0.0032,-0.0045,-0.0096,-0.0128,-0.0128,-0.0133,-0.0101,-0.0074,0.0023,0.0115,0.0235,0.0171,0.0268,0.0289,0.0352,0.0361,0.0305,0.0405,0.0407,0.0337,0.0386,0.0368,0.038,0.0388,0.0391,0.0392,0,0.0011,-0.0029,-0.0069,-0.0106,-0.0106,-0.0117,-0.0058,-0.0058,0.0085,0.0131,0.0279,0.0392,0.0526,0.0456,0.0531,0.0507,0.0479,0.0466,0.0467,0.0431,0.036,0.0359,0.0405,0.0416,0.0414,0.0412,0.0411,0,0.0033,-0.004,-0.006,-0.0084,-0.0122,-0.0099,-0.0075,0.0011,0.0083,0.0284,0.0405,0.0554,0.0698,0.0693,0.066,0.0637,0.0703,0.0671,0.0553,0.0544,0.057,0.0557,0.0712,0.0712,0.0712,0.0712,0.0712,0,0.0016,-0.001,-0.0045,-0.0069,-0.0045,-0.0057,0.0042,0.0072,0.0237,0.0416,0.0519,0.0691,0.0775,0.0837,0.0744,0.0686,0.0768,0.0589,0.0573,0.0551,0.0537,0.0618,0.0606,0.0713,0.0713,0.0713,0.0713,0,0.0019,0.0001,-0.0042,-0.0066,-0.0044,-0.0013,0.0117,0.0211,0.0324,0.0573,0.0688,0.0871,0.0953,0.0922,0.0941,0.0814,0.0747,0.0687,0.0615,0.0591,0.0511,0.0499,0.0607,0.0605,0.0603,0.0602,0.0601,0,-0.0,-0.0023,-0.0029,0.0008,0.0003,0.0079,0.0165,0.0265,0.0391,0.0675,0.082,0.101,0.114,0.1063,0.0917,0.0754,0.0731,0.0605,0.0559,0.0542,0.0515,0.0505,0.0495,0.0555,0.0553,0.0552,0.0551,0,-0.0056,-0.0033,-0.0038,0.0042,0.0119,0.0214,0.0348,0.0464,0.0655,0.0856,0.1119,0.1258,0.1215,0.1109,0.0866,0.0734,0.0634,0.0574,0.0653,0.0568,0.0491,0.0464,0.0457,0.0541,0.0542,0.0543,0.0543,0.0544,-0.0068,-0.0055,0.0002,0.0109,0.0206,0.0372,0.0505,0.0675,0.0917,0.1212,0.1277,0.1405,0.1268,0.096,0.0758,0.0541,0.0571,0.0473,0.0479,0.0485,0.046,0.0384,0.0405,0.0405,0.0405,0.0405,0.0406,0,-0.0068,0.0013,0.0088,0.0238,0.0396,0.0434,0.0658,0.0817,0.1131,0.1273,0.1463,0.1289,0.1129,0.0927,0.0599,0.0411,0.0402,0.034,0.0381,0.0393,0.0402,0.0374,0.0295,0.0295,0.0294,0.0293,0,0,-0.0045,0.005,0.0132,0.0416,0.0541,0.0748,0.0897,0.1112,0.1239,0.1398,0.1419,0.1389,0.116,0.0891,0.0657,0.0482,0.0472,0.043,0.0536,0.0623,0.0634,0.0493,0.0463,0,0,0,0,0]}],[{"header":{"parameterUnit":"m.s-1","parameterCategory":2,"la1":30.2991,"la2":30.254,"lo1":-89.0895,"lo2":-89.0444,"dy":0.0017,"dx":0.0017,"nx":28,"ny":28,"refTime":"2023-08-02T03:00:00:Z","depth":"4","parameterNumber":2,"parameterNumberName":"U-component_of_CURRENTS"},"data":[0,0,0,0,0,0,0,0,0,0,0,0,0,0,0,0,0,0,0,0,0,0,0,0,0,0,0,0,0,0,0,0,0,0,0,0,0,0,0,0,0,0,0,0,0,0,0,0,0,0,0,0,0,0,0,0,0,0,0.0872,0.0872,0,0.0849,0.0849,0.0848,0.0871,0.0872,0.0873,0.0874,0.0954,0.0955,0.0956,0,0,0,0,0,0,0,0,0,0,0,0,0,0.0842,0.0843,0.0873,0.0872,0.0872,0.0849,0.0849,0.0848,0.0871,0.0872,0.0874,0.0875,0.0953,0.0955,0.0956,0,0,0,0,0,0,0,0,0,0,0,0,0,0.084,0.0843,0.0873,0.0882,0.0882,0.0849,0.0849,0.0848,0.0871,0.0872,0.0874,0.0875,0.0953,0.0954,0.0956,0.0937,0,0,0.0961,0.0962,0,0,0,0,0,0,0,0,0.084,0.0841,0.088,0.0881,0.0882,0.0866,0.0867,0.0883,0.0871,0.0874,0.0874,0.0876,0.0933,0.0937,0.0926,0.0941,0.0944,0.0962,0.0963,0.0963,0.0964,0,0,0,0,0,0,0,0.084,0.0841,0.0862,0.088,0.0881,0.0854,0.0856,0.0869,0.0897,0.0874,0.0876,0.0874,0.0934,0.0924,0.0928,0.0945,0.0962,0.0963,0.0964,0.0965,0.1053,0.1055,0,0,0,0,0,0,0.0849,0.0842,0.0863,0.0862,0.0865,0.0854,0.0856,0.0868,0.0894,0.0899,0.0873,0.0875,0.092,0.0926,0.0931,0.096,0.0963,0.0965,0.0966,0.1052,0.1054,0.1055,0,0,0,0,0,0,0.0848,0.0851,0.0864,0.0851,0.0851,0.0854,0.0866,0.0867,0.0892,0.0893,0.09,0.0902,0.0922,0.0929,0.0976,0.0962,0.0966,0.0968,0.1051,0.1053,0.1054,0.0986,0,0,0,0,0,0,0.0848,0.0851,0.087,0.0852,0.0852,0.083,0.0865,0.0866,0.0887,0.0891,0.0919,0.0925,0.0923,0.0973,0.0977,0.0965,0.0969,0.1049,0.1051,0.1054,0.0987,0.0986,0.0985,0,0,0,0,0,0.0847,0.0852,0.0871,0.0874,0.0876,0.0828,0.0824,0.083,0.0888,0.0867,0.0925,0.0926,0.0992,0.0975,0.098,0.0967,0.1048,0.1051,0.1054,0.0988,0.0986,0.0985,0,0,0,0,0,0,0.0848,0.0854,0.0875,0.0885,0.0857,0.0832,0.0831,0.0851,0.0879,0.0906,0.094,0.0948,0.0962,0.1001,0.0983,0.1007,0.1021,0.1025,0.0969,0.0968,0.0967,0.099,0.097,0,0,0,0,0,0.0858,0.0872,0.0854,0.0864,0.0858,0.086,0.0855,0.0848,0.0865,0.088,0.0901,0.0948,0.097,0.1004,0.0998,0.1036,0.109,0.1037,0.1036,0.1034,0.1061,0.1156,0.1165,0.1065,0.1065,0.1065,0,0,0.0846,0.0871,0.0867,0.0866,0.0863,0.0818,0.086,0.084,0.0822,0.0886,0.0893,0.092,0.0973,0.0979,0.0995,0.1023,0.1084,0.1038,0.1036,0.1065,0.116,0.117,0.1178,0.1067,0.1066,0.1066,0,0,0.0812,0.0869,0.0847,0.0827,0.0817,0.0809,0.0814,0.0791,0.0807,0.0816,0.0854,0.0904,0.0935,0.0964,0.0994,0.1006,0.1047,0.1003,0.1044,0.1133,0.1142,0.1151,0.1188,0.1201,0.1036,0.1036,0.1036,0,0.0809,0.0784,0.0825,0.0794,0.0781,0.0812,0.0758,0.0766,0.076,0.0797,0.0813,0.0906,0.0928,0.0994,0.0994,0.0998,0.1053,0.1031,0.113,0.114,0.115,0.1187,0.1202,0.1033,0.1033,0.1033,0.1034,0,0.072,0.0714,0.0704,0.0688,0.0679,0.0636,0.0646,0.0663,0.0716,0.0732,0.0798,0.0849,0.0931,0.093,0.0971,0.1053,0.1063,0.1083,0.1125,0.1156,0.1193,0.1209,0.1029,0.103,0.1031,0.1031,0,0,0.0686,0.0643,0.0647,0.063,0.062,0.0605,0.0614,0.0627,0.0692,0.0706,0.0791,0.0836,0.0907,0.0952,0.1003,0.1098,0.1184,0.114,0.1146,0.1161,0.1364,0.1193,0.1195,0.1233,0.1236,0.1239,0.1343,0,0.0604,0.0517,0.0534,0.0474,0.0424,0.0491,0.0515,0.0556,0.0628,0.0711,0.0812,0.0889,0.0904,0.0977,0.1062,0.1165,0.1235,0.1153,0.1348,0.1353,0.1185,0.1211,0.1251,0.1356,0.136,0.1363,0.1365,0,0.0509,0.0469,0.0372,0.0396,0.0396,0.0388,0.0495,0.0521,0.0656,0.0731,0.0844,0.0921,0.1057,0.1073,0.1265,0.1221,0.129,0.1359,0.1365,0.1252,0.1215,0.1335,0.1396,0.1394,0.1391,0.1389,0.1387,0,0.0441,0.0387,0.032,0.0305,0.0313,0.0352,0.0406,0.0529,0.0619,0.0769,0.0862,0.1,0.112,0.1234,0.1345,0.1341,0.1541,0.1548,0.1444,0.1431,0.1583,0.1574,0.1673,0.1673,0.1673,0.1673,0.1672,0,0.034,0.03,0.0293,0.0246,0.0271,0.0316,0.0413,0.05,0.0662,0.0779,0.0886,0.0995,0.1183,0.13,0.1375,0.1442,0.156,0.1455,0.1458,0.1545,0.1531,0.1592,0.1581,0.1676,0.1676,0.1675,0.1674,0,0.0249,0.0227,0.0172,0.0186,0.0223,0.0255,0.0428,0.0504,0.066,0.0822,0.0883,0.1057,0.1198,0.1313,0.1507,0.1477,0.1557,0.1539,0.1591,0.1594,0.1381,0.1366,0.1462,0.1457,0.1453,0.1449,0.1446,0,0.0165,0.0118,0.014,0.0148,0.0156,0.0237,0.0312,0.0492,0.0591,0.084,0.0905,0.1084,0.1179,0.1316,0.141,0.1498,0.1485,0.1491,0.1463,0.1371,0.1366,0.1357,0.1348,0.144,0.1439,0.1438,0.1437,0,0.0031,0.0066,0.0038,0.0056,0.0113,0.0192,0.0315,0.0401,0.0622,0.0765,0.0949,0.1039,0.1166,0.1269,0.1322,0.138,0.1476,0.1449,0.1458,0.1432,0.1346,0.1342,0.1338,0.1422,0.1424,0.1426,0.1426,0,-0.002,-0.0043,-0.004,-0.0003,0.0049,0.0126,0.021,0.036,0.0515,0.0808,0.0852,0.1023,0.1177,0.1204,0.1252,0.1284,0.1287,0.126,0.128,0.1297,0.1184,0.1046,0.1045,0,0,0,0,0,-0.007,-0.0072,-0.0089,-0.0046,-0.0008,0.0048,0.0203,0.0299,0.0524,0.0645,0.0777,0.0893,0.1004,0.1064,0.107,0.1116,0.1239,0.1107,0.1204,0.1342,0.1359,0.1235,0,0,0,0,0,0,-0.0098,-0.0108,-0.0109,-0.0086,-0.0066,0.0005,0.0101,0.0241,0.0345,0.0566,0.0644,0.0801,0.0917,0.1003,0.1043,0.1058,0.1091,0.1212,0.1209,0.1333,0.1348,0.1361,0.1239,0,0,0,0,0]},{"header":{"parameterUnit":"m.s-1","parameterCategory":2,"la1":30.2991,"la2":30.254,"lo1":-89.0895,"lo2":-89.0444,"dy":0.0017,"dx":0.0017,"nx":28,"ny":28,"refTime":"2023-08-02T03:00:00:Z","depth":"4","parameterNumber":3,"parameterNumberName":"V-component_of_CURRENTS"},"data":[0,0,0,0,0,0,0,0,0,0,0,0,0,0,0,0,0,0,0,0,0,0,0,0,0,0,0,0,0,0,0,0,0,0,0,0,0,0,0,0,0,0,0,0,0,0,0,0,0,0,0,0,0,0,0,0,0,0,-0.0043,-0.0043,0,-0.0099,-0.01,-0.0101,-0.0149,-0.0149,-0.0149,-0.0149,-0.0157,-0.0158,-0.0158,0,0,0,0,0,0,0,0,0,0,0,0,0,-0.0032,-0.0032,-0.0043,-0.0043,-0.0043,-0.0099,-0.01,-0.0101,-0.0149,-0.0149,-0.0149,-0.0149,-0.0157,-0.0158,-0.0158,0,0,0,0,0,0,0,0,0,0,0,0,0,-0.0062,-0.0032,-0.0043,-0.007,-0.0072,-0.0098,-0.01,-0.0102,-0.0149,-0.0149,-0.0149,-0.0149,-0.0157,-0.0158,-0.0158,-0.0157,0,0,-0.0159,-0.0159,0,0,0,0,0,0,0,0,-0.006,-0.0063,-0.0066,-0.0068,-0.0071,-0.0113,-0.0099,-0.0116,-0.0149,-0.0125,-0.0149,-0.0149,-0.0134,-0.0137,-0.0155,-0.0158,-0.0158,-0.0159,-0.0159,-0.0159,-0.0159,0,0,0,0,0,0,0,-0.0058,-0.0061,-0.007,-0.0066,-0.0069,-0.0098,-0.0102,-0.0103,-0.0132,-0.0127,-0.013,-0.0128,-0.0136,-0.0155,-0.0155,-0.0158,-0.0159,-0.0159,-0.0159,-0.0159,-0.0169,-0.0169,0,0,0,0,0,0,-0.0037,-0.0058,-0.0068,-0.0071,-0.006,-0.0097,-0.0103,-0.0103,-0.0133,-0.0136,-0.0128,-0.013,-0.0154,-0.0155,-0.0156,-0.0123,-0.0159,-0.0159,-0.0159,-0.0169,-0.0169,-0.0169,0,0,0,0,0,0,-0.0037,-0.0038,-0.0066,-0.0062,-0.0067,-0.0096,-0.0097,-0.0104,-0.0121,-0.0133,-0.0136,-0.0136,-0.0154,-0.0155,-0.0163,-0.0124,-0.0159,-0.0159,-0.0169,-0.0169,-0.0169,-0.0078,0,0,0,0,0,0,-0.0037,-0.0038,-0.0036,-0.0061,-0.0066,-0.0059,-0.0097,-0.0105,-0.0117,-0.0121,-0.0141,-0.0142,-0.0155,-0.0163,-0.0163,-0.0125,-0.016,-0.0168,-0.0169,-0.0169,-0.0081,-0.0075,-0.007,0,0,0,0,0,-0.0036,-0.0022,-0.0036,-0.0037,-0.0061,-0.0057,-0.0062,-0.0088,-0.0117,-0.0109,-0.0143,-0.0142,-0.0164,-0.0163,-0.0164,-0.0125,-0.0168,-0.0169,-0.0169,-0.0083,-0.0076,-0.007,0,0,0,0,0,0,-0.0014,-0.0026,-0.0041,-0.0032,-0.0035,-0.0062,-0.0058,-0.0085,-0.0109,-0.0116,-0.0145,-0.0148,-0.0141,-0.0157,-0.0155,-0.0134,-0.0165,-0.0165,-0.01,-0.0093,-0.0088,-0.0069,-0.016,0,0,0,0,0,-0.0008,-0.0006,-0.0015,-0.0009,-0.0004,-0.0036,-0.0041,-0.0056,-0.0078,-0.009,-0.0107,-0.013,-0.0143,-0.0138,-0.0153,-0.0136,-0.0163,-0.0116,-0.011,-0.0105,-0.0094,-0.0146,-0.0143,-0.017,-0.017,-0.017,0,0,0.0004,-0.0006,-0.0003,-0.0005,-0.0014,0.0014,-0.004,-0.0034,-0.0012,-0.0084,-0.0067,-0.0111,-0.0141,-0.0128,-0.0124,-0.0131,-0.0105,-0.0106,-0.01,-0.0092,-0.0146,-0.0143,-0.0141,-0.017,-0.017,-0.017,0,0,0.0038,0.0023,0.0043,0.005,0.0051,0.0044,0.005,0.0033,0.0027,0.003,-0.0022,-0.0057,-0.0058,-0.0081,-0.0092,-0.0069,-0.0083,-0.0063,-0.0003,-0.0053,-0.0051,-0.0049,-0.0041,-0.004,-0.005,-0.005,-0.0049,0,0.0049,0.0075,0.0052,0.0081,0.0099,0.0066,0.0108,0.0106,0.0085,0.0075,0.0055,-0.001,-0.0035,-0.0041,-0.0031,-0.0052,-0.0067,-0.0017,-0.0043,-0.0043,-0.0043,-0.0036,-0.0036,-0.0045,-0.0046,-0.0046,-0.0047,0,0.0108,0.0131,0.015,0.0178,0.0193,0.0224,0.0232,0.0236,0.0216,0.0193,0.0169,0.0108,0.0065,0.0057,0.0029,0.0021,0.0017,-0.0037,-0.0052,-0.0034,-0.0028,-0.0029,-0.0039,-0.0041,-0.0042,-0.0043,0,0,0.0118,0.0181,0.0183,0.0218,0.0248,0.0268,0.0314,0.0331,0.0333,0.0307,0.0293,0.0256,0.0189,0.017,0.0116,0.0082,0.0078,0.004,0.0035,0.0064,0.0015,0.0007,0.0005,0.002,0.0019,0.0019,0.0034,0,0.0169,0.0248,0.0265,0.0345,0.0391,0.0391,0.0429,0.0433,0.0414,0.0393,0.0324,0.029,0.0248,0.0211,0.0174,0.0074,0.0073,0.0082,-0.0021,-0.0022,-0.0021,0.0001,0.0016,0.0033,0.0033,0.0032,0.0032,0,0.0217,0.0263,0.0361,0.0423,0.0442,0.0492,0.0521,0.055,0.0517,0.0489,0.0438,0.0368,0.0314,0.0261,0.016,0.0168,0.012,0.0058,0.0055,0.0013,-0.0035,-0.0002,0.0029,0.003,0.003,0.003,0.003,0,0.0232,0.0323,0.0407,0.0436,0.0509,0.0549,0.058,0.0574,0.059,0.0544,0.0516,0.0434,0.038,0.0293,0.0173,0.0167,0.0056,0.0019,-0.0012,-0.0011,-0.0047,-0.0049,-0.0022,-0.0022,-0.0022,-0.0022,-0.0022,0,0.0278,0.0337,0.0429,0.0475,0.0561,0.0588,0.0647,0.0654,0.0644,0.0638,0.0567,0.0519,0.038,0.029,0.0197,0.0091,0.0079,0.0015,-0.0016,-0.0004,-0.0002,-0.0045,-0.0048,-0.0021,-0.0021,-0.0022,-0.0022,0,0.029,0.0354,0.0446,0.054,0.0582,0.0639,0.0717,0.0731,0.0724,0.071,0.0697,0.0589,0.0467,0.0347,0.019,0.0124,0.0012,-0.0011,0.0056,0.0025,-0.001,-0.0008,-0.0028,-0.0028,-0.0029,-0.0029,-0.0029,0,0.0314,0.0368,0.049,0.0543,0.0603,0.069,0.0737,0.0775,0.0782,0.0735,0.0714,0.0613,0.0525,0.0326,0.0186,0.0046,0.0019,-0.0006,-0.0033,0.0014,-0.0014,-0.0012,-0.0011,-0.003,-0.003,-0.003,-0.003,0,0.0343,0.0384,0.0445,0.0559,0.0645,0.0731,0.0799,0.0809,0.0816,0.0817,0.0725,0.0613,0.0483,0.0317,0.0219,0.0102,0.0011,-0.0009,-0.0009,-0.0034,0.0012,-0.0016,-0.0014,-0.0031,-0.0031,-0.0031,-0.0031,0,0.0349,0.0378,0.0454,0.0559,0.0663,0.0738,0.0777,0.079,0.0816,0.0771,0.073,0.0589,0.0514,0.0347,0.023,0.0135,0.0111,0.0082,0.0077,0.0076,0.0082,0.0154,0.0143,0,0,0,0,0,0.0347,0.0371,0.0447,0.0548,0.0647,0.0721,0.0798,0.0815,0.0826,0.0774,0.0763,0.0638,0.0458,0.0363,0.027,0.0219,0.0089,0.0105,0.0052,-0.0037,-0.0035,-0.0051,0,0,0,0,0,0,0.0343,0.0394,0.0427,0.0535,0.0595,0.0705,0.0759,0.0763,0.0739,0.0726,0.0633,0.0609,0.0436,0.0509,0.0261,0.023,0.0183,0.0031,0.0029,-0.0037,-0.0036,-0.0035,-0.0051,0,0,0,0,0]}]]